Location: Melbourne
(37.8666°S, 145.1333°E)
Time: 11:42:04
(UTC+11:00)

Daily predictions for brighter satellites

Satellite Brightness Start Highest point End
(mag) Time Altitude Azimuth Time Altitude Azimuth Time Altitude Azimuth
APEX 3.5 21:02:54 10° SW 21:05:37 45° WNW 21:08:34 10° N
ALOS 4.1 21:03:20 10° S 21:07:41 37° WSW 21:11:59 10° NW
Cosmos 1408 3.3 21:04:27 10° S 21:07:53 35° E 21:11:14 10° NNE
Cosmos 1455 2.7 21:05:19 10° NNW 21:09:04 65° W 21:12:53 10° S
Cosmos 1825 3.0 21:06:12 10° SSE 21:09:47 35° ESE 21:13:19 10° NE
SeaSat 1 3.7 21:05:05 10° SSE 21:09:53 49° WSW 21:14:39 10° NW
FengYun 1-2 T 4.3 21:04:45 10° SSE 21:10:30 79° ENE 21:16:11 10° N
GPS 2-04 Rocket1 4.3 21:10:34 10° WNW 21:13:07 19° NNW 21:15:38 10° NNE
Cosmos 1470 Rocket 3.9 21:12:00 10° SSW 21:16:23 69° W 21:20:41 10° N
Helios 1B rocket 2.8 21:13:34 10° NNE 21:17:35 50° ESE 21:21:39 10° S
SJ-6B 2.9 21:14:31 10° SSE 21:18:43 72° E 21:22:47 10° N
YAOGAN 6 4.0 21:16:30 10° SE 21:19:14 20° E 21:21:57 10° NE
Cosmos 1892 4.3 21:17:02 10° SSW 21:20:40 38° W 21:24:16 10° NNW
Cosmos 1869 3.4 21:17:13 10° N 21:21:08 58° E 21:25:08 10° SSE
Cosmos 2228 Rocket 4.3 21:18:27 10° NNW 21:22:53 48° W 21:27:18 10° S
Resurs 1-3 4.4 21:19:46 10° SSE 21:23:46 32° E 21:27:43 10° NNE
USA 186 2.0 21:21:51 10° SSE 21:24:14 29° E 21:26:25 10° NNE
Cosmos 1777 Rocket 4.0 21:19:02 10° N 21:24:20 76° ENE 21:29:41 10° SSE
Meteor 1-29 3.6 21:22:26 10° NE 21:25:44 39° ESE 21:29:05 10° S
Tiangong 2 1.8 21:23:43 10° WSW 21:26:53 50° SSE 21:29:59 10° E
Cosmos 1934 Rocket 4.0 21:21:30 10° N 21:27:48 77° E 21:34:05 10° S
Envisat 3.2 21:22:45 10° SSE 21:27:48 53° E 21:32:47 10° N
HJ-1C 4.1 21:27:19 10° S 21:30:41 58° WSW 21:34:00 10° NNW
Cosmos 1605 Rocket 4.1 21:26:59 10° NNE 21:32:56 55° E 21:39:03 10° SSE
Cosmos 1437 2.6 21:30:18 10° N 21:33:29 86° ENE 21:36:45 10° S
USA 267 3.4 21:29:54 10° SE 21:36:20 54° NE 21:42:44 10° NNW
Cosmos 773 Rocket 4.0 21:31:58 10° SSW 21:37:11 72° ESE 21:42:09 11° NNE
Cosmos 192 4.3 21:36:03 10° SSW 21:41:01 78° ESE 21:45:38 12° NNE
SME Rocket 4.4 21:40:38 10° SE 21:43:15 17° E 21:44:02 16° ENE
Cosmos 1680 Rocket 4.2 21:47:56 10° S 21:52:52 39° ESE 21:56:02 20° NE
Cosmos 2297 Rocket 4.4 21:51:06 10° SSE 21:52:55 11° SE 21:54:43 10° ESE
USA 238 DEB 4.1 21:46:14 10° SSW 21:53:08 52° SE 21:58:11 18° ENE
USA 238 4.2 21:46:21 10° SSW 21:53:14 51° SE 21:58:17 18° ENE
Cosmos 1898 Rocket 4.5 21:51:52 17° NE 21:54:35 26° E 21:58:54 10° SE
Lacrosse 5 rocket 3.7 21:51:33 10° W 21:55:31 29° SW 21:59:23 10° SSE
Resurs 01 Rocket 1.6 21:50:59 10° SSE 21:55:31 74° ENE 21:59:59 10° N
DMSP B5D2-2 4.1 21:51:11 12° NNE 21:56:04 80° ESE 22:01:23 10° S
Cosmos 1869 Rocket 3.6 21:52:07 10° S 21:56:42 80° E 22:00:27 15° N
Cosmos 1340 3.9 21:53:22 10° NNW 21:57:01 44° WSW 22:00:44 10° S
Cosmos 1833 4.4 21:52:25 10° SSW 21:58:03 72° WNW 22:02:56 14° NNE
Cosmos 1939 Rocket 2.7 21:57:13 10° SSE 22:01:10 77° ENE 22:05:03 10° N
Cosmos 1733 Rocket 4.4 21:57:41 10° SSE 22:01:25 25° ESE 22:02:53 21° ENE
BREEZE-M DEB (TANK) 4.4 21:56:42 10° WSW 22:02:04 26° SSW 22:04:34 10° SE
ORS 1 (USA 231) 4.1 22:00:11 10° WSW 22:02:50 70° NNW 22:03:27 46° NE
CRYOSAT 2 4.3 21:58:32 12° N 22:03:06 82° E 22:08:04 10° S
Cosmos 1707 Rocket 3.6 22:03:26 10° N 22:07:55 84° W 22:12:27 10° S
ERS-1 Rocket 4.4 22:05:47 10° SE 22:09:16 18° E 22:09:26 18° E
H-2A R/B 3.7 22:07:02 10° ESE 22:09:40 15° E 22:09:40 15° E
Cosmos 2123 Rocket 4.4 22:03:36 10° SSW 22:09:56 65° W 22:16:12 10° N
Shenzhou-11 Module 3.8 22:15:32 10° W 22:17:54 21° NW 22:18:12 20° NNW
CZ-4B DEB 4.4 22:17:00 10° SSE 22:20:34 65° E 22:21:46 38° N
OAO 2 Rocket 3.3 22:16:25 10° WNW 22:21:20 60° N 22:23:49 28° ENE
Spot 2 Rocket 3.5 22:16:24 10° SSE 22:21:36 84° WSW 22:26:42 10° NNW
BREEZE-M DEB (TANK) 1.5 22:19:22 10° SW 22:21:44 84° SW 22:21:44 84° SW
Cosmos 2285 Rocket 4.4 22:17:25 10° S 22:23:38 50° ESE 22:26:39 29° NE
Cosmos 2173 Rocket 4.0 22:26:17 24° NNE 22:29:55 60° E 22:36:00 10° SSE
NOSS 3-2 (C) 4.4 22:24:48 10° SSW 22:30:50 37° SE 22:33:46 24° E
Meteor 2-10 Rocket 4.5 22:25:54 10° NNW 22:30:54 49° WSW 22:36:12 10° S
ATLAS 2AS CENTAUR R/B 3.9 22:25:28 10° WNW 22:31:19 39° SW 22:36:58 10° SSE
ASTEX 1 4.5 22:30:44 27° E 22:31:43 29° ESE 22:36:01 10° SSE
Helios 1A 4.1 22:29:08 10° SE 22:32:20 27° E 22:32:20 27° E
Cosmos 2219 3.3 22:28:11 10° SSW 22:33:56 68° ESE 22:36:18 36° NE
Meteor 1-26 Rocket 4.2 22:31:37 29° NNE 22:34:26 60° E 22:39:58 10° SSE
Cosmos 1862 4.2 22:32:55 10° SSW 22:36:53 46° W 22:39:08 23° NNW
SL-24 R/B - RUBIN 2 3.9 22:32:07 10° NNW 22:36:55 87° WSW 22:42:22 10° SSE
Cosmos 923 Rocket 4.5 22:35:25 10° SSW 22:40:37 56° WNW 22:43:22 27° N
Cosmos 1802 Rocket 4.0 22:39:19 30° NNE 22:42:25 64° E 22:48:33 10° SSE
Cosmos 2298 Rocket 4.3 22:41:25 40° NE 22:42:42 49° ENE 22:47:53 10° SSE
Cosmos 1937 Rocket 3.5 22:45:33 39° NNE 22:47:21 61° ENE 22:52:39 10° SSE
Cosmos 1725 Rocket 4.5 22:46:26 36° ENE 22:47:58 42° E 22:53:52 10° SSE
Iridium 4 Rocket 4.3 22:49:19 31° E 22:49:23 31° E 22:53:40 10° SSE
Cosmos 1441 Rocket 4.1 22:50:40 37° ESE 22:50:40 37° ESE 22:53:38 10° SSE
ATLAS 3B R/B 3.0 22:44:03 10° SW 22:51:31 76° WNW 22:55:07 34° NNE
Cosmos 2100 Rocket 4.0 22:48:47 21° N 22:53:08 81° W 22:59:32 10° S
CZ-2C R/B 2.9 22:51:56 42° ENE 22:53:13 52° ESE 22:58:25 10° S
Cosmos 2112 Rocket 4.2 22:48:52 10° SSW 22:54:04 67° WNW 22:55:54 39° N
NOSS 3-4 (A) 3.9 22:47:25 10° NNW 22:55:22 85° ENE 23:03:10 10° SE
NOSS 3-4 (C) 3.9 22:47:32 10° NNW 22:55:29 84° ENE 23:03:17 10° SE
Cosmos 405 3.9 22:52:10 10° S 22:55:01 39° SE 22:55:01 39° SE
CENTAUR R/B 3.9 22:50:59 10° S 22:55:42 23° SE 22:58:18 17° ESE
NOAA 11 4.4 22:51:20 10° S 22:56:54 72° WSW 23:00:42 21° NNW
SPOT 5 4.0 22:53:47 10° SE 22:56:52 27° ESE 22:56:52 27° ESE
SL-08 RB Rocket 3.9 22:53:54 10° SSE 22:58:09 50° E 22:58:09 50° E
MetOp-B 4.1 22:55:20 10° SSE 23:00:44 65° ENE 23:01:51 52° NNE
Cosmos 1908 Rocket 4.0 22:57:24 10° S 23:01:25 45° ESE 23:01:25 45° ESE
Cosmos 405 Rocket 3.1 23:04:22 53° SE 23:04:22 53° SE 23:07:23 10° SSE
Tiangong 2 3.1 23:00:39 10° W 23:02:14 23° W 23:02:14 23° W
ARGOS 3.0 22:58:35 10° SSE 23:04:00 71° ENE 23:05:15 52° NNE
Aureole 1 Rocket 4.4 23:02:34 10° S 23:03:52 19° SSE 23:03:52 19° SSE
Cosmos 1980 Rocket 4.2 23:07:54 13° ESE 23:07:54 13° ESE 23:08:53 10° ESE
Aureole 3 4.2 23:01:00 10° S 23:06:02 80° W 23:08:03 43° N
Cosmos 1862 Rocket 4.2 23:06:53 36° NW 23:08:26 55° W 23:12:56 10° S
Cosmos 1459 Rocket 4.3 23:04:36 21° NNW 23:08:57 65° W 23:15:20 10° S
Meteor 1-20 Rocket 4.2 23:03:20 10° S 23:08:58 66° E 23:09:52 57° NE
Cosmos 1633 3.6 23:06:11 10° S 23:08:54 39° SSE 23:08:54 39° SSE
Cosmos 2150 Rocket 3.9 23:10:45 56° N 23:11:53 81° ENE 23:17:18 10° SSE
Sich 1 Rocket 4.1 23:08:45 10° S 23:12:44 47° ESE 23:12:44 47° ESE
Cosmos 2227 Rocket 2.3 23:12:35 10° SSW 23:18:16 61° ESE 23:19:03 55° E
Meteor 1-14 Rocket 4.2 23:12:49 10° S 23:18:36 82° W 23:19:48 57° N
USA 267 4.3 23:13:01 10° SE 23:19:12 45° SW 23:25:23 10° WNW
Cosmos 2278 3.5 23:22:09 67° NE 23:22:34 70° ENE 23:28:15 10° SSE
Cosmos 1782 3.4 23:26:06 52° SSE 23:26:06 52° SSE 23:29:15 10° S
SPOT 1/Viking Rocket 3.7 23:25:17 10° SSE 23:30:04 57° ESE 23:30:04 57° ESE
CZ-4B R/B 3.4 23:31:32 76° ENE 23:31:48 78° ESE 23:37:07 10° S
Spot 1 4.3 23:26:47 10° SSE 23:31:42 79° ESE 23:31:42 79° ESE
Cosmos 2082 3.7 23:30:25 10° SSW 23:36:09 67° ESE 23:36:28 65° E
Cosmos 2369 3.6 23:36:08 62° NW 23:37:09 83° WSW 23:42:53 10° SSE
Tsikada Rocket 3.8 23:30:55 10° S 23:37:10 83° E 23:37:59 69° NNE
DNEPR-1 R/B 4.3 23:30:42 10° SSW 23:37:47 82° ESE 23:38:32 70° NE
Cosmos 2297 Rocket 2.1 23:32:13 10° SSW 23:37:57 76° ESE 23:38:14 74° E
Terra 3.2 23:36:16 10° SSE 23:39:06 29° SE 23:39:06 29° SE
Mayak 0.1 23:45:49 35° SSE 23:45:49 35° SSE 23:48:42 10° S
Kakehashi 4.4 23:39:13 10° WNW 23:53:24 12° E 23:54:23 10° E
Cosmos 1606 4.2 23:47:57 35° SW 23:47:57 35° SW 23:50:45 10° S
Meteor 1-10 Rocket 4.1 23:46:47 79° NNW 23:47:07 86° W 23:52:59 10° S
deb Chang Zheng 4 4.1 23:48:39 58° SSW 23:48:39 58° SSW 23:52:17 10° SSW
ERS-1 Rocket 3.8 23:43:23 10° S 23:48:15 47° WSW 23:49:26 39° WNW
Cosmos 1125 Rocket 4.3 23:49:38 42° ESE 23:49:38 42° ESE 23:53:30 10° SSE
NOSS 3-2 (A) 3.9 23:43:10 10° SW 23:49:10 46° WNW 23:49:37 45° NW
H-2A R/B 2.4 23:44:41 10° S 23:49:40 55° WSW 23:50:17 51° W
Cosmos 1697 Rocket 2.7 23:50:58 69° ESE 23:50:58 69° ESE 23:56:08 10° SSE
BREEZE-M DEB (TANK) 4.4 23:44:19 10° W 23:50:48 39° SSW 23:51:50 31° SSE
Cosmos 1656 3.8 23:50:19 60° WNW 23:51:12 71° WSW 23:56:58 10° SSE
USA 234 3.4 23:50:54 53° E 23:52:26 69° SE 23:59:01 10° SW
Cosmos 1782 Rocket 4.3 23:50:31 10° S 23:53:55 52° SSW 23:53:55 52° SSW
